Time,TemperatureF,DewpointF,PressureIn,WindDirection,WindDirectionDegrees,WindSpeedMPH,WindSpeedGustMPH,Humidity,HourlyPrecipIn,Conditions,Clouds,dailyrainin,SoftwareType,DateUTC
2013-09-01 00:03:00,78.1,74.0,29.87,SSW,198,0.0,-999.0,88,-99.99,,,0.00,weatherlink.com 1.10,2013-09-01 04:03:00,
2013-09-01 00:18:00,78.1,75.0,29.87,SSW,198,0.0,-999.0,89,-99.99,,,0.00,weatherlink.com 1.10,2013-09-01 04:18:00,
2013-09-01 00:33:00,78.1,75.0,29.86,SW,232,0.0,-999.0,89,-99.99,,,0.00,weatherlink.com 1.10,2013-09-01 04:33:00,
2013-09-01 00:48:00,78.1,75.0,29.85,WSW,246,0.0,-999.0,89,-99.99,,,0.00,weatherlink.com 1.10,2013-09-01 04:48:00,
2013-09-01 01:03:00,78.3,75.0,29.85,SW,219,0.0,-999.0,89,-99.99,,,0.00,weatherlink.com 1.10,2013-09-01 05:03:00,
2013-09-01 01:18:00,78.3,75.0,29.85,SW,219,0.0,-999.0,88,-99.99,,,0.00,weatherlink.com 1.10,2013-09-01 05:18:00,
2013-09-01 01:33:00,78.6,75.0,29.85,WNW,288,0.0,-999.0,88,-99.99,,,0.00,weatherlink.com 1.10,2013-09-01 05:33:00,
2013-09-01 01:48:00,78.8,75.0,29.85,West,265,0.0,-999.0,89,-99.99,,,0.00,weatherlink.com 1.10,2013-09-01 05:48:00,
2013-09-01 02:03:00,78.8,75.0,29.85,SW,220,0.0,-999.0,89,-99.99,,,0.00,weatherlink.com 1.10,2013-09-01 06:03:00,
2013-09-01 02:18:00,78.8,75.0,29.85,SSW,196,0.0,-999.0,89,-99.99,,,0.00,weatherlink.com 1.10,2013-09-01 06:18:00,
2013-09-01 02:33:00,78.6,75.0,29.85,West,274,0.0,-999.0,89,-99.99,,,0.00,weatherlink.com 1.10,2013-09-01 06:33:00,
2013-09-01 02:48:00,78.3,75.0,29.85,WSW,254,0.0,-999.0,89,-99.99,,,0.00,weatherlink.com 1.10,2013-09-01 06:48:00,
2013-09-01 03:03:00,78.1,75.0,29.85,WSW,256,0.0,-999.0,89,-99.99,,,0.00,weatherlink.com 1.10,2013-09-01 07:03:00,
2013-09-01 03:18:00,77.9,75.0,29.85,WSW,257,0.0,-999.0,90,-99.99,,,0.00,weatherlink.com 1.10,2013-09-01 07:18:00,
2013-09-01 03:33:00,77.7,75.0,29.85,West,263,0.0,-999.0,90,-99.99,,,0.00,weatherlink.com 1.10,2013-09-01 07:33:00,
2013-09-01 03:48:00,77.7,75.0,29.84,West,263,0.0,-999.0,90,-99.99,,,0.00,weatherlink.com 1.10,2013-09-01 07:48:00,
2013-09-01 04:03:00,77.6,75.0,29.84,West,263,0.0,-999.0,91,-99.99,,,0.00,weatherlink.com 1.10,2013-09-01 08:03:00,
2013-09-01 04:18:00,77.4,75.0,29.84,West,263,0.0,-999.0,91,-99.99,,,0.00,weatherlink.com 1.10,2013-09-01 08:18:00,
2013-09-01 04:33:00,77.2,75.0,29.84,West,263,0.0,-999.0,91,-99.99,,,0.00,weatherlink.com 1.10,2013-09-01 08:33:00,
2013-09-01 04:48:00,77.0,74.0,29.84,WSW,258,0.0,-999.0,91,-99.99,,,0.00,weatherlink.com 1.10,2013-09-01 08:48:00,
2013-09-01 05:03:00,76.8,74.0,29.84,WSW,258,0.0,-999.0,91,-99.99,,,0.00,weatherlink.com 1.10,2013-09-01 09:03:00,
2013-09-01 05:18:00,76.5,74.0,29.84,WSW,258,0.0,-999.0,91,-99.99,,,0.00,weatherlink.com 1.10,2013-09-01 09:18:00,
2013-09-01 05:33:00,76.1,73.0,29.84,WSW,258,0.0,-999.0,91,-99.99,,,0.00,weatherlink.com 1.10,2013-09-01 09:33:00,
2013-09-01 05:48:00,76.0,74.0,29.84,WSW,258,0.0,-999.0,92,-99.99,,,0.00,weatherlink.com 1.10,2013-09-01 09:48:00,
2013-09-01 06:03:00,76.0,74.0,29.84,WSW,258,0.0,-999.0,92,-99.99,,,0.00,weatherlink.com 1.10,2013-09-01 10:03:00,
2013-09-01 06:18:00,76.0,74.0,29.85,WSW,258,0.0,-999.0,92,-99.99,,,0.00,weatherlink.com 1.10,2013-09-01 10:18:00,
2013-09-01 06:33:00,76.0,74.0,29.85,WSW,258,0.0,-999.0,92,-99.99,,,0.00,weatherlink.com 1.10,2013-09-01 10:33:00,
2013-09-01 06:48:00,76.3,74.0,29.85,WSW,258,0.0,-999.0,93,-99.99,,,0.00,weatherlink.com 1.10,2013-09-01 10:48:00,
2013-09-01 07:03:00,76.7,75.0,29.86,WSW,258,0.0,-999.0,93,-99.99,,,0.00,weatherlink.com 1.10,2013-09-01 11:03:00,
2013-09-01 07:18:00,76.7,75.0,29.86,WSW,258,0.0,-999.0,93,-99.99,,,0.00,weatherlink.com 1.10,2013-09-01 11:18:00,
2013-09-01 07:33:00,76.8,75.0,29.86,WSW,258,0.0,-999.0,93,-99.99,,,0.00,weatherlink.com 1.10,2013-09-01 11:33:00,
2013-09-01 07:48:00,77.4,75.0,29.87,WSW,258,0.0,-999.0,93,-99.99,,,0.00,weatherlink.com 1.10,2013-09-01 11:48:00,
2013-09-01 08:03:00,77.9,76.0,29.87,SW,226,0.0,-999.0,92,-99.99,,,0.00,weatherlink.com 1.10,2013-09-01 12:03:00,
2013-09-01 08:18:00,78.6,76.0,29.87,SSW,202,0.0,-999.0,90,-99.99,,,0.00,weatherlink.com 1.10,2013-09-01 12:18:00,
2013-09-01 08:33:00,79.4,75.0,29.87,WNW,287,0.0,-999.0,87,-99.99,,,0.00,weatherlink.com 1.10,2013-09-01 12:33:00,
2013-09-01 08:48:00,80.3,75.0,29.87,SW,219,0.0,-999.0,84,-99.99,,,0.00,weatherlink.com 1.10,2013-09-01 12:48:00,
2013-09-01 09:03:00,81.1,76.0,29.88,West,275,0.0,-999.0,83,-99.99,,,0.00,weatherlink.com 1.10,2013-09-01 13:03:00,
2013-09-01 09:18:00,81.4,75.0,29.88,SW,229,0.0,-999.0,82,-99.99,,,0.00,weatherlink.com 1.10,2013-09-01 13:18:00,
2013-09-01 09:33:00,82.2,76.0,29.88,SW,227,0.0,-999.0,82,-99.99,,,0.00,weatherlink.com 1.10,2013-09-01 13:33:00,
2013-09-01 09:48:00,82.6,76.0,29.88,SW,216,0.0,-999.0,81,-99.99,,,0.00,weatherlink.com 1.10,2013-09-01 13:48:00,
2013-09-01 10:03:00,83.0,77.0,29.89,WSW,241,0.0,-999.0,81,-99.99,,,0.00,weatherlink.com 1.10,2013-09-01 14:03:00,
2013-09-01 10:18:00,83.6,77.0,29.89,West,267,0.0,-999.0,81,-99.99,,,0.00,weatherlink.com 1.10,2013-09-01 14:18:00,
2013-09-01 10:33:00,83.2,77.0,29.89,South,191,0.0,-999.0,81,-99.99,,,0.00,weatherlink.com 1.10,2013-09-01 14:33:00,
2013-09-01 10:48:00,84.1,77.0,29.89,SW,227,0.0,-999.0,78,-99.99,,,0.00,weatherlink.com 1.10,2013-09-01 14:48:00,
2013-09-01 11:03:00,84.3,78.0,29.89,SSE,151,0.0,-999.0,80,-99.99,,,0.00,weatherlink.com 1.10,2013-09-01 15:03:00,
2013-09-01 11:18:00,84.7,78.0,29.88,SSE,164,0.0,-999.0,79,-99.99,,,0.00,weatherlink.com 1.10,2013-09-01 15:18:00,
2013-09-01 11:33:00,84.5,77.0,29.88,West,263,0.0,-999.0,78,-99.99,,,0.00,weatherlink.com 1.10,2013-09-01 15:33:00,
2013-09-01 11:48:00,84.7,77.0,29.87,West,265,0.0,-999.0,77,-99.99,,,0.00,weatherlink.com 1.10,2013-09-01 15:48:00,
2013-09-01 12:03:00,84.7,77.0,29.87,SE,136,0.0,-999.0,78,-99.99,,,0.00,weatherlink.com 1.10,2013-09-01 16:03:00,
2013-09-01 12:18:00,85.1,77.0,29.87,WNW,302,7.0,-999.0,76,-99.99,,,0.00,weatherlink.com 1.10,2013-09-01 16:18:00,
2013-09-01 12:33:00,85.3,77.0,29.87,South,176,4.0,-999.0,75,-99.99,,,0.00,weatherlink.com 1.10,2013-09-01 16:33:00,
2013-09-01 12:48:00,84.5,77.0,29.87,SSE,151,0.0,-999.0,77,-99.99,,,0.00,weatherlink.com 1.10,2013-09-01 16:48:00,
2013-09-01 13:03:00,85.7,77.0,29.86,South,189,0.0,-999.0,76,-99.99,,,0.00,weatherlink.com 1.10,2013-09-01 17:03:00,
2013-09-01 13:18:00,85.3,79.0,29.86,North,359,0.0,-999.0,81,-99.99,,,0.00,weatherlink.com 1.10,2013-09-01 17:18:00,
2013-09-01 13:33:00,85.1,77.0,29.85,SW,216,8.0,-999.0,77,-99.99,,,0.00,weatherlink.com 1.10,2013-09-01 17:33:00,
2013-09-01 13:48:00,85.1,77.0,29.85,South,191,0.0,-999.0,77,-99.99,,,0.00,weatherlink.com 1.10,2013-09-01 17:48:00,
2013-09-01 14:03:00,85.3,78.0,29.85,SW,227,2.0,-999.0,78,-99.99,,,0.00,weatherlink.com 1.10,2013-09-01 18:03:00,
2013-09-01 14:18:00,85.1,78.0,29.84,WSW,239,0.0,-999.0,78,-99.99,,,0.00,weatherlink.com 1.10,2013-09-01 18:18:00,
2013-09-01 14:33:00,85.3,78.0,29.84,SSE,167,2.0,-999.0,79,-99.99,,,0.00,weatherlink.com 1.10,2013-09-01 18:33:00,
2013-09-01 14:48:00,84.9,78.0,29.83,South,172,0.0,-999.0,80,-99.99,,,0.00,weatherlink.com 1.10,2013-09-01 18:48:00,
2013-09-01 15:03:00,85.3,78.0,29.83,South,182,0.0,-999.0,79,-99.99,,,0.00,weatherlink.com 1.10,2013-09-01 19:03:00,
2013-09-01 15:18:00,85.3,78.0,29.83,SSW,212,4.0,-999.0,78,-99.99,,,0.00,weatherlink.com 1.10,2013-09-01 19:18:00,
2013-09-01 15:33:00,84.9,78.0,29.82,West,268,6.0,-999.0,80,-99.99,,,0.00,weatherlink.com 1.10,2013-09-01 19:33:00,
2013-09-01 15:48:00,84.9,78.0,29.81,WSW,243,0.0,-999.0,79,-99.99,,,0.00,weatherlink.com 1.10,2013-09-01 19:48:00,
2013-09-01 16:03:00,84.5,78.0,29.81,WNW,299,0.0,-999.0,80,-99.99,,,0.00,weatherlink.com 1.10,2013-09-01 20:03:00,
2013-09-01 16:18:00,84.5,78.0,29.80,SSW,198,1.0,-999.0,80,-99.99,,,0.00,weatherlink.com 1.10,2013-09-01 20:18:00,
2013-09-01 16:33:00,84.3,78.0,29.80,WSW,239,0.0,-999.0,80,-99.99,,,0.00,weatherlink.com 1.10,2013-09-01 20:33:00,
2013-09-01 16:48:00,84.3,77.0,29.80,SSW,192,0.0,-999.0,79,-99.99,,,0.00,weatherlink.com 1.10,2013-09-01 20:48:00,
2013-09-01 17:03:00,84.3,78.0,29.79,SW,227,0.0,-999.0,80,-99.99,,,0.00,weatherlink.com 1.10,2013-09-01 21:03:00,
2013-09-01 17:18:00,84.3,77.0,29.79,WSW,246,0.0,-999.0,78,-99.99,,,0.00,weatherlink.com 1.10,2013-09-01 21:18:00,
2013-09-01 17:33:00,84.0,77.0,29.79,South,174,0.0,-999.0,79,-99.99,,,0.00,weatherlink.com 1.10,2013-09-01 21:33:00,
2013-09-01 17:48:00,83.8,77.0,29.80,SW,226,0.0,-999.0,80,-99.99,,,0.00,weatherlink.com 1.10,2013-09-01 21:48:00,
2013-09-01 18:03:00,83.4,77.0,29.80,WSW,251,4.0,-999.0,80,-99.99,,,0.00,weatherlink.com 1.10,2013-09-01 22:03:00,
2013-09-01 18:18:00,82.8,76.0,29.80,SW,236,8.0,-999.0,81,-99.99,,,0.00,weatherlink.com 1.10,2013-09-01 22:18:00,
2013-09-01 18:33:00,82.4,76.0,29.79,SSE,158,0.0,-999.0,82,-99.99,,,0.00,weatherlink.com 1.10,2013-09-01 22:33:00,
2013-09-01 18:48:00,82.0,76.0,29.79,West,268,0.0,-999.0,83,-99.99,,,0.00,weatherlink.com 1.10,2013-09-01 22:48:00,
2013-09-01 19:03:00,81.6,76.0,29.79,South,176,6.0,-999.0,83,-99.99,,,0.00,weatherlink.com 1.10,2013-09-01 23:03:00,
2013-09-01 19:19:00,81.4,76.0,29.80,SSW,203,8.0,-999.0,83,-99.99,,,0.00,weatherlink.com 1.10,2013-09-01 23:19:00,
2013-09-01 19:34:00,81.2,76.0,29.80,WSW,246,6.0,-999.0,84,-99.99,,,0.00,weatherlink.com 1.10,2013-09-01 23:34:00,
2013-09-01 19:49:00,81.1,76.0,29.81,WSW,254,2.0,-999.0,85,-99.99,,,0.00,weatherlink.com 1.10,2013-09-01 23:49:00,
2013-09-01 20:04:00,81.1,76.0,29.82,South,186,0.0,-999.0,85,-99.99,,,0.00,weatherlink.com 1.10,2013-09-02 00:04:00,
2013-09-01 20:19:00,80.9,76.0,29.82,SSW,195,0.0,-999.0,86,-99.99,,,0.00,weatherlink.com 1.10,2013-09-02 00:19:00,
2013-09-01 20:34:00,80.9,76.0,29.82,South,189,0.0,-999.0,86,-99.99,,,0.00,weatherlink.com 1.10,2013-09-02 00:34:00,
2013-09-01 20:49:00,80.7,76.0,29.82,SSW,213,0.0,-999.0,86,-99.99,,,0.00,weatherlink.com 1.10,2013-09-02 00:49:00,
2013-09-01 21:04:00,80.7,76.0,29.83,SW,232,0.0,-999.0,86,-99.99,,,0.00,weatherlink.com 1.10,2013-09-02 01:04:00,
2013-09-01 21:19:00,80.7,77.0,29.83,WSW,254,0.0,-999.0,87,-99.99,,,0.00,weatherlink.com 1.10,2013-09-02 01:19:00,
2013-09-01 21:34:00,80.9,77.0,29.83,SW,227,0.0,-999.0,88,-99.99,,,0.00,weatherlink.com 1.10,2013-09-02 01:34:00,
2013-09-01 21:49:00,80.7,77.0,29.84,SW,220,0.0,-999.0,88,-99.99,,,0.00,weatherlink.com 1.10,2013-09-02 01:49:00,
2013-09-01 22:04:00,80.5,77.0,29.84,NNW,329,0.0,-999.0,88,-99.99,,,0.00,weatherlink.com 1.10,2013-09-02 02:04:00,
2013-09-01 22:19:00,80.5,77.0,29.84,South,189,4.0,-999.0,88,-99.99,,,0.00,weatherlink.com 1.10,2013-09-02 02:19:00,
2013-09-01 22:34:00,80.5,77.0,29.84,SSW,196,0.0,-999.0,88,-99.99,,,0.00,weatherlink.com 1.10,2013-09-02 02:34:00,
2013-09-01 22:49:00,80.5,77.0,29.84,SW,219,0.0,-999.0,88,-99.99,,,0.00,weatherlink.com 1.10,2013-09-02 02:49:00,
2013-09-01 23:04:00,80.3,77.0,29.85,NNW,337,0.0,-999.0,88,-99.99,,,0.00,weatherlink.com 1.10,2013-09-02 03:04:00,
2013-09-01 23:19:00,80.3,77.0,29.85,SSW,213,0.0,-999.0,88,-99.99,,,0.00,weatherlink.com 1.10,2013-09-02 03:19:00,
2013-09-01 23:34:00,80.3,77.0,29.84,WNW,294,2.0,-999.0,88,-99.99,,,0.00,weatherlink.com 1.10,2013-09-02 03:34:00,
2013-09-01 23:49:00,80.3,77.0,29.85,West,275,0.0,-999.0,88,-99.99,,,0.00,weatherlink.com 1.10,2013-09-02 03:49:00,